Time,TemperatureF,DewpointF,PressureIn,WindDirection,WindDirectionDegrees,WindSpeedMPH,WindSpeedGustMPH,Humidity,HourlyPrecipIn,Conditions,Clouds,dailyrainin,SoftwareType,DateUTC
2013-02-26 00:01:00,43.0,38.0,30.42,NW,326,3.0,8.0,82,0.00,,,0.36,,2013-02-26 05:01:00,
2013-02-26 00:11:00,43.0,38.0,30.42,West,280,2.0,5.0,82,0.00,,,0.36,,2013-02-26 05:11:00,
2013-02-26 00:21:00,43.0,38.0,30.42,West,280,2.0,5.0,82,0.00,,,0.36,,2013-02-26 05:21:00,
2013-02-26 00:31:00,44.0,39.0,30.42,North,0,0.0,6.0,82,0.00,,,0.36,,2013-02-26 05:31:00,
2013-02-26 00:42:00,44.0,39.0,30.42,North,0,0.0,6.0,82,0.00,,,0.36,,2013-02-26 05:42:00,
2013-02-26 00:52:00,44.0,39.0,30.42,NW,312,6.0,8.0,82,0.00,,,0.36,,2013-02-26 05:52:00,
2013-02-26 01:01:00,44.0,38.0,30.42,North,0,0.0,9.0,80,0.00,,,0.36,,2013-02-26 06:01:00,
2013-02-26 01:11:00,44.0,38.0,30.42,North,0,0.0,9.0,80,0.00,,,0.36,,2013-02-26 06:11:00,
2013-02-26 01:21:00,43.0,37.0,30.42,North,0,0.0,5.0,80,0.00,,,0.36,,2013-02-26 06:21:00,
2013-02-26 01:31:00,42.0,37.0,30.42,North,0,0.0,0.0,81,0.00,,,0.36,,2013-02-26 06:31:00,
2013-02-26 01:41:00,42.0,37.0,30.42,North,0,0.0,0.0,81,0.00,,,0.36,,2013-02-26 06:41:00,
2013-02-26 01:52:00,40.0,36.0,30.43,North,0,0.0,0.0,85,0.00,,,0.36,,2013-02-26 06:52:00,
2013-02-26 02:01:00,40.0,36.0,30.43,North,0,0.0,0.0,87,0.00,,,0.36,,2013-02-26 07:01:00,
2013-02-26 02:11:00,40.0,36.0,30.43,North,0,0.0,0.0,87,0.00,,,0.36,,2013-02-26 07:11:00,
2013-02-26 02:21:00,40.0,37.0,30.44,SE,131,3.0,5.0,89,0.00,,,0.36,,2013-02-26 07:21:00,
2013-02-26 02:31:00,40.0,37.0,30.44,North,0,0.0,6.0,90,0.00,,,0.34,,2013-02-26 07:31:00,
2013-02-26 02:41:00,40.0,37.0,30.44,North,0,0.0,6.0,90,0.00,,,0.34,,2013-02-26 07:41:00,
2013-02-26 02:52:00,40.0,38.0,30.44,North,0,0.0,0.0,91,0.00,,,0.34,,2013-02-26 07:52:00,
2013-02-26 03:01:00,39.0,37.0,30.44,SE,144,1.0,5.0,92,0.00,,,0.34,,2013-02-26 08:01:00,
2013-02-26 03:11:00,39.0,37.0,30.44,North,0,0.0,0.0,93,0.00,,,0.34,,2013-02-26 08:11:00,
2013-02-26 03:21:00,39.0,37.0,30.44,North,0,0.0,0.0,93,0.00,,,0.34,,2013-02-26 08:21:00,
2013-02-26 03:31:00,39.0,37.0,30.43,North,0,0.0,3.0,94,0.00,,,0.22,,2013-02-26 08:31:00,
2013-02-26 03:41:00,39.0,37.0,30.43,North,0,0.0,3.0,94,0.00,,,0.22,,2013-02-26 08:41:00,
2013-02-26 03:52:00,38.0,36.0,30.42,North,0,0.0,3.0,94,0.00,,,0.22,,2013-02-26 08:52:00,
2013-02-26 04:01:00,37.0,36.0,30.42,North,0,0.0,0.0,95,0.00,,,0.22,,2013-02-26 09:01:00,
2013-02-26 04:11:00,37.0,36.0,30.42,North,0,0.0,0.0,95,0.00,,,0.22,,2013-02-26 09:11:00,
2013-02-26 04:21:00,37.0,36.0,30.43,North,0,0.0,2.0,96,0.00,,,0.22,,2013-02-26 09:21:00,
2013-02-26 04:31:00,37.0,36.0,30.43,SSE,149,3.0,4.0,97,0.00,,,0.05,,2013-02-26 09:31:00,
2013-02-26 04:42:00,37.0,36.0,30.43,SSE,149,3.0,4.0,97,0.00,,,0.05,,2013-02-26 09:42:00,
2013-02-26 04:51:00,37.0,36.0,30.43,North,0,0.0,4.0,98,0.00,,,0.05,,2013-02-26 09:51:00,
2013-02-26 05:01:00,37.0,36.0,30.43,North,0,0.0,0.0,98,0.00,,,0.05,,2013-02-26 10:01:00,
2013-02-26 05:11:00,37.0,36.0,30.43,North,0,0.0,0.0,98,0.00,,,0.05,,2013-02-26 10:11:00,
2013-02-26 05:21:00,37.0,37.0,30.42,North,0,0.0,0.0,99,0.00,,,0.05,,2013-02-26 10:21:00,
2013-02-26 05:31:00,37.0,37.0,30.42,North,0,0.0,0.0,99,0.00,,,0.05,,2013-02-26 10:31:00,
2013-02-26 05:41:00,37.0,37.0,30.42,North,0,0.0,0.0,99,0.00,,,0.05,,2013-02-26 10:41:00,
2013-02-26 05:52:00,37.0,37.0,30.42,North,0,0.0,0.0,99,0.00,,,0.05,,2013-02-26 10:52:00,
2013-02-26 06:01:00,37.0,37.0,30.42,North,0,0.0,0.0,100,0.00,,,0.05,,2013-02-26 11:01:00,
2013-02-26 06:11:00,37.0,37.0,30.42,North,0,0.0,0.0,100,0.00,,,0.05,,2013-02-26 11:11:00,
2013-02-26 06:21:00,38.0,38.0,30.41,SSE,154,4.0,7.0,100,0.00,,,0.05,,2013-02-26 11:21:00,
2013-02-26 06:31:00,38.0,38.0,30.42,SSE,163,3.0,7.0,100,0.00,,,0.05,,2013-02-26 11:31:00,
2013-02-26 06:41:00,38.0,38.0,30.42,SSE,158,2.0,7.0,100,0.00,,,0.05,,2013-02-26 11:41:00,
2013-02-26 06:52:00,38.0,38.0,30.42,SSE,158,2.0,7.0,100,0.00,,,0.05,,2013-02-26 11:52:00,
2013-02-26 07:01:00,37.0,37.0,30.42,North,0,0.0,3.0,100,0.00,,,0.05,,2013-02-26 12:01:00,
2013-02-26 07:11:00,37.0,37.0,30.42,North,0,0.0,3.0,100,0.00,,,0.05,,2013-02-26 12:11:00,
2013-02-26 07:21:00,37.0,37.0,30.41,SSE,149,2.0,4.0,100,0.00,,,0.05,,2013-02-26 12:21:00,
2013-02-26 07:32:00,37.0,37.0,30.41,ESE,107,3.0,6.0,100,0.00,,,0.05,,2013-02-26 12:32:00,
2013-02-26 07:41:00,37.0,37.0,30.41,ESE,107,3.0,6.0,100,0.00,,,0.05,,2013-02-26 12:41:00,
2013-02-26 07:52:00,37.0,37.0,30.41,SE,135,3.0,6.0,100,0.00,,,0.05,,2013-02-26 12:52:00,
2013-02-26 08:01:00,37.0,37.0,30.42,North,0,0.0,6.0,100,0.00,,,0.05,,2013-02-26 13:01:00,
2013-02-26 08:11:00,37.0,37.0,30.41,North,0,0.0,0.0,100,0.00,,,0.05,,2013-02-26 13:11:00,
2013-02-26 08:21:00,37.0,37.0,30.41,North,0,0.0,0.0,100,0.00,,,0.05,,2013-02-26 13:21:00,
2013-02-26 08:31:00,36.0,36.0,30.42,North,0,0.0,0.0,100,0.00,,,0.04,,2013-02-26 13:31:00,
2013-02-26 08:42:00,36.0,36.0,30.42,North,0,0.0,0.0,100,0.00,,,0.04,,2013-02-26 13:42:00,
2013-02-26 08:52:00,36.0,36.0,30.42,ESE,105,7.0,7.0,100,0.00,,,0.04,,2013-02-26 13:52:00,
2013-02-26 09:01:00,36.0,36.0,30.42,ESE,112,4.0,7.0,100,0.00,,,0.04,,2013-02-26 14:01:00,
2013-02-26 09:11:00,36.0,36.0,30.42,ESE,112,4.0,7.0,100,0.00,,,0.04,,2013-02-26 14:11:00,
2013-02-26 09:21:00,36.0,36.0,30.42,SE,141,5.0,8.0,100,0.00,,,0.04,,2013-02-26 14:21:00,
2013-02-26 09:31:00,36.0,36.0,30.42,ESE,114,6.0,8.0,100,0.00,,,0.04,,2013-02-26 14:31:00,
2013-02-26 09:41:00,36.0,36.0,30.42,ESE,114,6.0,8.0,100,0.00,,,0.04,,2013-02-26 14:41:00,
2013-02-26 09:52:00,36.0,36.0,30.42,ESE,117,5.0,7.0,100,0.00,,,0.04,,2013-02-26 14:52:00,
2013-02-26 10:01:00,36.0,36.0,30.41,ESE,113,6.0,6.0,100,0.00,,,0.04,,2013-02-26 15:01:00,
2013-02-26 10:11:00,36.0,36.0,30.41,ESE,113,6.0,6.0,100,0.00,,,0.04,,2013-02-26 15:11:00,
2013-02-26 10:21:00,37.0,37.0,30.40,East,99,9.0,10.0,100,0.00,,,0.04,,2013-02-26 15:21:00,
2013-02-26 10:31:00,37.0,37.0,30.40,East,100,7.0,10.0,100,0.00,,,0.04,,2013-02-26 15:31:00,
2013-02-26 10:41:00,37.0,37.0,30.40,East,100,7.0,10.0,100,0.00,,,0.04,,2013-02-26 15:41:00,
2013-02-26 10:52:00,37.0,37.0,30.39,ESE,110,9.0,11.0,100,0.00,,,0.04,,2013-02-26 15:52:00,
2013-02-26 11:01:00,37.0,37.0,30.40,SE,126,7.0,11.0,100,0.00,,,0.04,,2013-02-26 16:01:00,
2013-02-26 11:11:00,37.0,37.0,30.40,SE,126,7.0,11.0,100,0.00,,,0.04,,2013-02-26 16:11:00,
2013-02-26 11:22:00,37.0,37.0,30.39,ESE,110,6.0,8.0,100,0.00,,,0.04,,2013-02-26 16:22:00,
2013-02-26 11:31:00,38.0,38.0,30.40,East,92,4.0,6.0,99,0.00,,,0.02,,2013-02-26 16:31:00,
2013-02-26 11:41:00,38.0,38.0,30.40,East,92,4.0,6.0,99,0.00,,,0.02,,2013-02-26 16:41:00,
2013-02-26 11:52:00,39.0,39.0,30.40,ESE,123,6.0,7.0,99,0.00,,,0.02,,2013-02-26 16:52:00,
2013-02-26 12:01:00,40.0,39.0,30.40,ENE,63,5.0,8.0,98,0.00,,,0.02,,2013-02-26 17:01:00,
2013-02-26 12:11:00,43.0,42.0,30.40,ESE,103,5.0,6.0,96,0.00,,,0.02,,2013-02-26 17:11:00,
2013-02-26 12:21:00,43.0,42.0,30.40,ESE,103,5.0,6.0,96,0.00,,,0.02,,2013-02-26 17:21:00,
2013-02-26 12:32:00,44.0,42.0,30.39,SSE,151,5.0,7.0,92,0.00,,,0.02,,2013-02-26 17:32:00,
2013-02-26 12:41:00,44.0,42.0,30.39,SSE,151,5.0,7.0,92,0.00,,,0.02,,2013-02-26 17:41:00,
2013-02-26 12:52:00,45.0,42.0,30.38,SE,130,6.0,8.0,88,0.00,,,0.02,,2013-02-26 17:52:00,
2013-02-26 13:01:00,45.0,40.0,30.38,SE,133,7.0,8.0,83,0.00,,,0.02,,2013-02-26 18:01:00,
2013-02-26 13:12:00,45.0,40.0,30.38,SE,133,7.0,8.0,83,0.00,,,0.02,,2013-02-26 18:12:00,
2013-02-26 13:21:00,46.0,41.0,30.37,South,169,5.0,9.0,81,0.00,,,0.02,,2013-02-26 18:21:00,
2013-02-26 13:31:00,47.0,41.0,30.38,ESE,109,1.0,5.0,79,0.00,,,0.02,,2013-02-26 18:31:00,
2013-02-26 13:42:00,47.0,41.0,30.38,ESE,109,1.0,5.0,79,0.00,,,0.02,,2013-02-26 18:42:00,
2013-02-26 13:52:00,48.0,41.0,30.37,SSE,165,5.0,7.0,76,0.00,,,0.02,,2013-02-26 18:52:00,
2013-02-26 14:01:00,48.0,40.0,30.37,SSE,155,6.0,8.0,75,0.00,,,0.02,,2013-02-26 19:01:00,
2013-02-26 14:11:00,48.0,40.0,30.37,SSE,155,6.0,8.0,75,0.00,,,0.02,,2013-02-26 19:11:00,
2013-02-26 14:22:00,49.0,40.0,30.37,SSE,155,5.0,9.0,72,0.00,,,0.02,,2013-02-26 19:22:00,
2013-02-26 14:31:00,49.0,40.0,30.37,SSE,168,6.0,7.0,72,0.00,,,0.02,,2013-02-26 19:31:00,
2013-02-26 14:41:00,49.0,40.0,30.37,SSE,168,6.0,7.0,72,0.00,,,0.02,,2013-02-26 19:41:00,
2013-02-26 14:52:00,49.0,40.0,30.37,SSE,168,5.0,7.0,71,0.00,,,0.02,,2013-02-26 19:52:00,
2013-02-26 15:01:00,49.0,40.0,30.36,SW,219,6.0,9.0,70,0.00,,,0.02,,2013-02-26 20:01:00,
2013-02-26 15:11:00,49.0,40.0,30.36,SW,219,6.0,9.0,70,0.00,,,0.02,,2013-02-26 20:11:00,
2013-02-26 15:21:00,49.0,40.0,30.35,WSW,240,2.0,9.0,70,0.00,,,0.02,,2013-02-26 20:21:00,
2013-02-26 15:31:00,50.0,39.0,30.34,South,172,7.0,10.0,67,0.00,,,0.02,,2013-02-26 20:31:00,
2013-02-26 15:41:00,50.0,39.0,30.34,South,172,7.0,10.0,67,0.00,,,0.02,,2013-02-26 20:41:00,
2013-02-26 15:52:00,51.0,40.0,30.34,SE,145,6.0,10.0,65,0.00,,,0.02,,2013-02-26 20:52:00,
2013-02-26 16:01:00,51.0,38.0,30.32,SSE,147,5.0,11.0,61,0.00,,,0.02,,2013-02-26 21:01:00,
2013-02-26 16:11:00,51.0,38.0,30.32,SSE,147,5.0,11.0,61,0.00,,,0.02,,2013-02-26 21:11:00,
2013-02-26 16:21:00,52.0,39.0,30.32,SSE,147,6.0,10.0,61,0.00,,,0.02,,2013-02-26 21:21:00,
2013-02-26 16:31:00,52.0,41.0,30.32,West,267,7.0,9.0,66,0.00,,,0.02,,2013-02-26 21:31:00,
2013-02-26 16:41:00,52.0,41.0,30.32,West,267,7.0,9.0,66,0.00,,,0.02,,2013-02-26 21:41:00,
2013-02-26 16:51:00,50.0,41.0,30.31,WSW,256,7.0,10.0,70,0.00,,,0.02,,2013-02-26 21:51:00,
2013-02-26 17:01:00,50.0,41.0,30.31,West,267,5.0,10.0,71,0.00,,,0.02,,2013-02-26 22:01:00,
2013-02-26 17:11:00,49.0,40.0,30.30,West,261,6.0,10.0,72,0.00,,,0.02,,2013-02-26 22:11:00,
2013-02-26 17:21:00,49.0,40.0,30.30,West,261,6.0,10.0,72,0.00,,,0.02,,2013-02-26 22:21:00,
2013-02-26 17:31:00,49.0,41.0,30.30,West,273,6.0,10.0,73,0.00,,,0.00,,2013-02-26 22:31:00,
2013-02-26 17:41:00,49.0,41.0,30.30,West,273,6.0,10.0,73,0.00,,,0.00,,2013-02-26 22:41:00,
2013-02-26 17:51:00,48.0,40.0,30.31,SW,225,8.0,12.0,73,0.00,,,0.00,,2013-02-26 22:51:00,
2013-02-26 18:01:00,47.0,40.0,30.30,SSW,193,9.0,11.0,76,0.00,,,0.00,,2013-02-26 23:01:00,
2013-02-26 18:11:00,47.0,40.0,30.30,SSW,193,9.0,11.0,76,0.00,,,0.00,,2013-02-26 23:11:00,
2013-02-26 18:21:00,47.0,41.0,30.30,SSW,200,8.0,11.0,78,0.00,,,0.00,,2013-02-26 23:21:00,
2013-02-26 18:31:00,46.0,40.0,30.32,WSW,247,10.0,11.0,79,0.00,,,0.00,,2013-02-26 23:31:00,
2013-02-26 18:41:00,46.0,40.0,30.32,WSW,247,10.0,11.0,79,0.00,,,0.00,,2013-02-26 23:41:00,
2013-02-26 18:52:00,46.0,40.0,30.32,West,273,3.0,13.0,80,0.00,,,0.00,,2013-02-26 23:52:00,
2013-02-26 19:01:00,46.0,40.0,30.32,West,260,4.0,5.0,80,0.00,,,0.00,,2013-02-27 00:01:00,
2013-02-26 19:11:00,46.0,40.0,30.32,West,260,4.0,5.0,80,0.00,,,0.00,,2013-02-27 00:11:00,
2013-02-26 19:21:00,46.0,40.0,30.32,SW,214,3.0,10.0,79,0.00,,,0.00,,2013-02-27 00:21:00,
2013-02-26 19:31:00,45.0,39.0,30.32,SW,224,2.0,7.0,78,0.00,,,0.00,,2013-02-27 00:31:00,
2013-02-26 19:41:00,45.0,39.0,30.32,SW,224,2.0,7.0,78,0.00,,,0.00,,2013-02-27 00:41:00,
2013-02-26 19:51:00,46.0,39.0,30.32,West,271,8.0,8.0,75,0.00,,,0.00,,2013-02-27 00:51:00,
2013-02-26 20:01:00,46.0,38.0,30.32,SSW,196,3.0,9.0,74,0.00,,,0.00,,2013-02-27 01:01:00,
2013-02-26 20:11:00,46.0,38.0,30.32,SSW,196,3.0,9.0,74,0.00,,,0.00,,2013-02-27 01:11:00,
2013-02-26 20:21:00,45.0,38.0,30.31,SSW,204,7.0,12.0,76,0.00,,,0.00,,2013-02-27 01:21:00,
2013-02-26 20:31:00,45.0,38.0,30.31,SSW,208,6.0,9.0,77,0.00,,,0.00,,2013-02-27 01:31:00,
2013-02-26 20:41:00,45.0,38.0,30.31,SSW,208,6.0,9.0,77,0.00,,,0.00,,2013-02-27 01:41:00,
2013-02-26 20:52:00,45.0,39.0,30.30,SSE,158,7.0,10.0,79,0.00,,,0.00,,2013-02-27 01:52:00,
2013-02-26 21:01:00,45.0,39.0,30.28,ESE,109,10.0,12.0,80,0.00,,,0.00,,2013-02-27 02:01:00,
2013-02-26 21:11:00,45.0,39.0,30.28,ESE,109,10.0,12.0,80,0.00,,,0.00,,2013-02-27 02:11:00,
2013-02-26 21:21:00,44.0,39.0,30.27,East,100,9.0,10.0,81,0.00,,,0.00,,2013-02-27 02:21:00,
2013-02-26 21:31:00,44.0,39.0,30.28,SE,133,6.0,12.0,81,0.00,,,0.00,,2013-02-27 02:31:00,
2013-02-26 21:41:00,44.0,39.0,30.28,SE,133,6.0,12.0,81,0.00,,,0.00,,2013-02-27 02:41:00,
2013-02-26 21:52:00,44.0,38.0,30.28,SE,145,7.0,9.0,80,0.00,,,0.00,,2013-02-27 02:52:00,
2013-02-26 22:01:00,43.0,38.0,30.29,SSE,163,6.0,9.0,81,0.00,,,0.00,,2013-02-27 03:01:00,
2013-02-26 22:11:00,43.0,38.0,30.28,SE,142,5.0,6.0,81,0.00,,,0.00,,2013-02-27 03:11:00,
2013-02-26 22:21:00,43.0,38.0,30.28,SE,142,5.0,6.0,81,0.00,,,0.00,,2013-02-27 03:21:00,
2013-02-26 22:31:00,43.0,38.0,30.28,North,0,0.0,6.0,82,0.00,,,0.00,,2013-02-27 03:31:00,
2013-02-26 22:41:00,43.0,38.0,30.28,North,0,0.0,6.0,82,0.00,,,0.00,,2013-02-27 03:41:00,
2013-02-26 22:52:00,43.0,38.0,30.29,SE,140,7.0,7.0,83,0.00,,,0.00,,2013-02-27 03:52:00,
2013-02-26 23:01:00,43.0,38.0,30.29,SE,131,3.0,7.0,83,0.00,,,0.00,,2013-02-27 04:01:00,
2013-02-26 23:11:00,43.0,38.0,30.29,SE,131,3.0,7.0,83,0.00,,,0.00,,2013-02-27 04:11:00,
2013-02-26 23:21:00,43.0,38.0,30.30,North,0,0.0,6.0,83,0.00,,,0.00,,2013-02-27 04:21:00,
2013-02-26 23:31:00,43.0,38.0,30.30,SSE,158,2.0,6.0,83,0.00,,,0.00,,2013-02-27 04:31:00,
2013-02-26 23:41:00,43.0,38.0,30.30,SSE,158,2.0,6.0,83,0.00,,,0.00,,2013-02-27 04:41:00,
2013-02-26 23:52:00,43.0,38.0,30.31,North,0,0.0,5.0,83,0.00,,,0.00,,2013-02-27 04:52:00,